Weather History for Homestead AFB, FL

Change the Weather History Date:

Saturday, August 3, 2013

  Actual Average Record
Temperature  
Mean Temperature 82 °F -  
Max Temperature 89 °F 90 °F 95 °F (1958)
Min Temperature 76 °F 71 °F 67 °F (1935)
Cooling Degree Days 17    
Growing Degree Days 32 (Base 50)    
Moisture  
Dew Point 75 °F    
Average Humidity 80    
Maximum Humidity 100    
Minimum Humidity 65    
Precipitation  
Precipitation 0.00 in - - ()
Sea Level Pressure  
Sea Level Pressure 30.10 in    
Wind  
Wind Speed 4 mph (SSE)    
Max Wind Speed 13 mph    
Max Gust Speed -    
Visibility 10 miles    
Events Rain , Thunderstorm    
Averages and records for this station are not official NWS values.
T = Trace of Precipitation, MM = Missing Value Source: NWS Daily Summary

Daily Weather History Graph

Daily Weather History Graph

Search for Another Location

Airport:

Trip Planner

Search our weather history database for the weather conditions in past years. The results will help you decide how hot, cold, wet, or windy it might be!

Date:

Astronomy

Aug. 03, 2013 Rise Set
Actual Time 6:49 AM EDT 8:05 PM EDT
Civil Twilight 6:24 AM EDT 8:30 PM EDT
Nautical Twilight 5:55 AM EDT 8:59 PM EDT
Astronomical Twilight 5:25 AM EDT 9:29 PM EDT
Moon 4:01 AM EDT (8/3) 5:43 PM EDT (8/3)
Length of Visible Light 14h 05m
Length of Day
13h 16m
Waning Crescent, 9% of the Moon is Illuminated
Aug 3
Waning Crescent
Aug 6
New
Aug 14
First Quarter
Aug 20
Full
Aug 28
Last Quarter

Hourly Weather History & Observations

Time (EDT) Temp. Heat Index Dew Point Humidity Pressure Visibility Wind Dir Wind Speed Gust Speed Precip Events Conditions
12:58 AM 79.9 °F - 76.5 °F 89% 30.06 in 10.0 mi South 5.8 mph - N/A   Clear
1:58 AM 79.0 °F - 76.1 °F 91% 30.08 in 10.0 mi Calm Calm - N/A   Clear
2:58 AM 78.8 °F - 76.3 °F 92% 30.07 in 10.0 mi Calm Calm - N/A   Clear
3:58 AM 77.5 °F - 76.5 °F 96% 30.06 in 10.0 mi Calm Calm - N/A   Clear
4:24 AM 78.8 °F - 77.0 °F 94% 30.04 in 10.0 mi Calm Calm - N/A Thunderstorm Thunderstorm
4:40 AM 77.0 °F - 77.0 °F 100% 30.05 in 10.0 mi ESE 1.2 mph - N/A Thunderstorm Partly Cloudy
4:58 AM 77.7 °F - 75.7 °F 94% 30.06 in 10.0 mi SSE 3.5 mph - N/A   Scattered Clouds
5:58 AM 77.4 °F - 73.0 °F 86% 30.07 in 10.0 mi SSE 6.9 mph - N/A   Clear
6:58 AM 77.9 °F - 72.9 °F 84% 30.08 in 10.0 mi SE 4.6 mph - N/A   Partly Cloudy
7:58 AM 79.7 °F - 75.6 °F 87% 30.10 in 10.0 mi SSE 3.5 mph - N/A   Partly Cloudy
8:58 AM 82.4 °F 90.9 °F 77.0 °F 84% 30.11 in 10.0 mi SSE 4.6 mph - N/A   Mostly Cloudy
9:03 AM 82.4 °F 90.9 °F 77.0 °F 84% 30.10 in 10.0 mi South 3.5 mph - N/A   Scattered Clouds
9:58 AM 84.4 °F 95.0 °F 77.7 °F 80% 30.11 in 10.0 mi South 5.8 mph - N/A   Scattered Clouds
10:13 AM 86.0 °F 96.9 °F 77.0 °F 74% 30.11 in 10.0 mi SSW 5.8 mph - N/A   Mostly Cloudy
10:43 AM 86.0 °F 96.9 °F 77.0 °F 74% 30.12 in 10.0 mi South 8.1 mph - N/A   Scattered Clouds
10:45 AM 86.0 °F 96.9 °F 77.0 °F 74% 30.12 in 10.0 mi South 6.9 mph - N/A Rain Light Rain
10:55 AM 86.0 °F 95.1 °F 75.2 °F 70% 30.12 in 10.0 mi SSE 8.1 mph - N/A   Partly Cloudy
10:58 AM 86.0 °F 95.5 °F 75.6 °F 71% 30.13 in 10.0 mi South 6.9 mph - 0.00 in   Partly Cloudy
11:58 AM 88.2 °F 98.0 °F 75.2 °F 65% 30.13 in 10.0 mi SSE 10.4 mph - N/A   Clear
12:58 PM 88.5 °F 98.8 °F 75.6 °F 65% 30.13 in 10.0 mi SSE 12.7 mph - N/A   Partly Cloudy
1:58 PM 88.0 °F 98.0 °F 75.6 °F 66% 30.11 in 10.0 mi South 5.8 mph - N/A   Scattered Clouds
2:41 PM 86.0 °F 95.1 °F 75.2 °F 70% 30.11 in 10.0 mi South 5.8 mph - N/A Rain Light Rain
2:51 PM 86.0 °F 95.1 °F 75.2 °F 70% 30.11 in 10.0 mi SSW 4.6 mph - N/A   Clear
2:58 PM 86.2 °F 96.9 °F 76.5 °F 73% 30.12 in 10.0 mi SW 4.6 mph - 0.00 in   Clear
3:39 PM 82.4 °F 88.2 °F 73.4 °F 74% 30.12 in 10.0 mi North 12.7 mph - N/A Thunderstorm Thunderstorm
3:58 PM 81.1 °F 86.0 °F 72.9 °F 76% 30.13 in 10.0 mi NNW 11.5 mph - N/A   Partly Cloudy
4:58 PM 80.8 °F 85.2 °F 72.7 °F 76% 30.11 in 10.0 mi NNW 5.8 mph - N/A   Clear
5:58 PM 80.4 °F 85.5 °F 74.5 °F 82% 30.11 in 10.0 mi North 4.6 mph - N/A   Clear
6:58 PM 81.0 °F 85.2 °F 72.1 °F 74% 30.11 in 10.0 mi North 5.8 mph - N/A   Clear
7:58 PM 80.1 °F 84.2 °F 73.0 °F 79% 30.11 in 10.0 mi Calm Calm - N/A   Clear
8:58 PM 79.5 °F - 72.0 °F 78% 30.13 in 10.0 mi NNE 3.5 mph - N/A   Clear
9:58 PM 77.0 °F - 73.0 °F 88% 30.14 in 10.0 mi ESE 4.6 mph - N/A   Clear
10:58 PM 76.3 °F - 74.1 °F 93% 30.15 in 10.0 mi SSE 2.3 mph - N/A   Clear
11:58 PM 78.1 °F - 71.6 °F 80% 30.14 in 10.0 mi Calm Calm - N/A   Partly Cloudy